Medan, Indonesia

4:17 PM WIB on February 21, 2017 (GMT +0700)
Polonia

Weather History for WIMM - July, 2013

Change the Weather History Date:

Friday, July 5, 2013

  Actual Average Record
Temperature  
Mean Temperature 83 °F -  
Max Temperature 91 °F - - ()
Min Temperature 75 °F - - ()
Cooling Degree Days 18    
Growing Degree Days 33 (Base 50)    
Moisture  
Dew Point 74 °F    
Average Humidity 77    
Maximum Humidity 94    
Minimum Humidity 48    
Precipitation  
Precipitation 0.00 in - - ()
Sea Level Pressure  
Sea Level Pressure 29.75 in    
Wind  
Wind Speed 3 mph ()    
Max Wind Speed 13 mph    
Max Gust Speed -    
Visibility 3.6 miles    
Events      
T = Trace of Precipitation, MM = Missing Value Source: Averaged Metar Reports

Daily Weather History Graph

Daily Weather History Graph

Search for Another Location

Airport or City:

Trip Planner

Search our weather history database for the weather conditions in past years. The results will help you decide how hot, cold, wet, or windy it might be!

Date:

Astronomy

Jul. 05, 2013 Rise Set
Actual Time 6:20 AM WIB 6:39 PM WIB
Civil Twilight 5:57 AM WIB 7:02 PM WIB
Nautical Twilight 5:31 AM WIB 7:28 PM WIB
Astronomical Twilight 5:04 AM WIB 7:54 PM WIB
Moon 3:44 AM WIB (7/5) 4:18 PM WIB (7/5)
Length of Visible Light 13h 04m
Length of Day
12h 19m
Waning Crescent, 8% of the Moon is Illuminated
Jul 5
Waning Crescent
Jul 8
New
Jul 16
First Quarter
Jul 23
Full
Jul 30
Last Quarter

Hourly Weather History & Observations

Time (WIB) Temp. Heat Index Dew Point Humidity Pressure Visibility Wind Dir Wind Speed Gust Speed Precip Events Conditions
12:00 AM 78.8 °F - 77.0 °F 94% 29.80 in 2.5 mi South 5.8 mph - N/A   Haze
12:30 AM 78.8 °F - 77.0 °F 94% 29.77 in 2.5 mi South 4.6 mph - N/A   Haze
1:00 AM 79 °F - 76 °F 87% 29.78 in 3 mi SSE 4.6 mph - -   Haze
1:00 AM 78.8 °F - 75.2 °F 89% 29.77 in 3.1 mi SSE 6.9 mph - N/A   Haze
1:30 AM 78.8 °F - 75.2 °F 89% 29.74 in 3.1 mi Calm Calm - N/A   Haze
2:00 AM 78.8 °F - 75.2 °F 89% 29.74 in 3.1 mi Calm Calm - N/A   Haze
2:30 AM 78.8 °F - 75.2 °F 89% 29.74 in 3.1 mi Calm Calm - N/A   Haze
3:00 AM 78.8 °F - 75.2 °F 89% 29.74 in 3.1 mi Calm Calm - N/A   Haze
4:00 AM 78 °F - 75 °F 88% 29.73 in 3 mi Calm Calm - -   Haze
4:00 AM 78.8 °F - 75.2 °F 89% 29.71 in 3.1 mi Calm Calm - N/A   Haze
4:30 AM 78.8 °F - 75.2 °F 89% 29.71 in 3.1 mi Calm Calm - N/A   Haze
5:00 AM 77.0 °F - 75.2 °F 94% 29.71 in 4.3 mi Calm Calm - N/A   Scattered Clouds
5:30 AM 77.0 °F - 75.2 °F 94% 29.71 in 4.3 mi Calm Calm - N/A   Scattered Clouds
6:00 AM 77.0 °F - 75.2 °F 94% 29.71 in 4.3 mi SSW 4.6 mph - N/A   Scattered Clouds
6:30 AM 77.0 °F - 75.2 °F 94% 29.74 in 3.7 mi Calm Calm - N/A   Partly Cloudy
7:00 AM 77 °F - 74 °F 90% 29.75 in 4 mi Calm Calm - -   Overcast
7:00 AM 77.0 °F - 75.2 °F 94% 29.74 in 3.7 mi Calm Calm - N/A   Partly Cloudy
7:30 AM 77.0 °F - 75.2 °F 94% 29.77 in 4.3 mi Calm Calm - N/A   Partly Cloudy
8:00 AM 78.8 °F - 75.2 °F 89% 29.77 in 3.1 mi Calm Calm - N/A   Haze
8:30 AM 78.8 °F - 75.2 °F 89% 29.77 in 3.1 mi Calm Calm - N/A   Haze
9:30 AM 80.6 °F 85.4 °F 73.4 °F 79% 29.80 in 3.7 mi SSE 4.6 mph - N/A   Scattered Clouds
10:00 AM 82 °F - 74 °F 72% 29.80 in 4 mi Calm Calm - -   Overcast
10:00 AM 82.4 °F 89.5 °F 75.2 °F 79% 29.80 in 4.3 mi Calm Calm - N/A   Scattered Clouds
10:30 AM 82.4 °F 89.5 °F 75.2 °F 79% 29.80 in 4.3 mi Calm Calm - N/A   Scattered Clouds
11:00 AM 84.2 °F 90.9 °F 73.4 °F 70% 29.77 in 4.3 mi SE 5.8 mph - N/A   Scattered Clouds
11:30 AM 84.2 °F 90.9 °F 73.4 °F 70% 29.77 in 4.3 mi SSE 5.8 mph - N/A   Scattered Clouds
12:00 PM 86.0 °F 93.4 °F 73.4 °F 66% 29.77 in 4.3 mi Calm Calm - N/A   Scattered Clouds
12:30 PM 86.0 °F 93.4 °F 73.4 °F 66% 29.74 in 4.3 mi Calm Calm - N/A   Scattered Clouds
1:00 PM 89 °F - 72 °F 48% 29.75 in 4 mi Calm Calm - -   Partly Cloudy
1:00 PM 89.6 °F 96.2 °F 71.6 °F 55% 29.74 in 4.3 mi Calm Calm - N/A   Scattered Clouds
1:30 PM 89.6 °F 96.2 °F 71.6 °F 55% 29.74 in 3.7 mi Calm Calm - N/A   Scattered Clouds
2:00 PM 91.4 °F 96.8 °F 69.8 °F 49% 29.71 in 3.7 mi Calm Calm - N/A   Scattered Clouds
2:30 PM 91.4 °F 96.8 °F 69.8 °F 49% 29.68 in 3.7 mi Calm Calm - N/A   Scattered Clouds
3:00 PM 89.6 °F 96.2 °F 71.6 °F 55% 29.68 in 3.7 mi Calm Calm - N/A   Scattered Clouds
3:30 PM 89.6 °F 96.2 °F 71.6 °F 55% 29.68 in 3.7 mi Calm Calm - N/A   Scattered Clouds
4:00 PM 88 °F - 72 °F 49% 29.68 in 3 mi ENE 10.4 mph - -   Haze
4:00 PM 87.8 °F 93.8 °F 71.6 °F 58% 29.68 in 3.1 mi ENE 10.4 mph - N/A   Scattered Clouds
4:30 PM 87.8 °F 93.8 °F 71.6 °F 58% 29.68 in 3.1 mi North 5.8 mph - N/A   Scattered Clouds
6:30 PM 86.0 °F 91.8 °F 71.6 °F 62% 29.71 in 2.5 mi NE 12.7 mph - N/A   Haze
7:00 PM 84 °F - 75 °F 67% 29.73 in 3 mi East 9.2 mph - -   Haze
7:00 PM 84.2 °F 92.3 °F 75.2 °F 74% 29.71 in 3.1 mi East 9.2 mph - N/A   Mostly Cloudy
7:30 PM 84.2 °F 92.3 °F 75.2 °F 74% 29.74 in 3.1 mi ENE 9.2 mph - N/A   Mostly Cloudy
8:00 PM 82.4 °F 89.5 °F 75.2 °F 79% 29.74 in 3.7 mi East 5.8 mph - N/A   Scattered Clouds
8:30 PM 82.4 °F 89.5 °F 75.2 °F 79% 29.77 in 3.7 mi East 5.8 mph - N/A   Scattered Clouds
9:00 PM 82.4 °F 89.5 °F 75.2 °F 79% 29.77 in 3.7 mi ESE 5.8 mph - N/A   Scattered Clouds
9:30 PM 82.4 °F 89.5 °F 75.2 °F 79% 29.80 in 3.7 mi South 5.8 mph - N/A   Scattered Clouds
10:00 PM 82 °F - 76 °F 76% 29.81 in 4 mi SE 4.6 mph - -   Partly Cloudy
10:00 PM 82.4 °F 89.5 °F 75.2 °F 79% 29.80 in 3.7 mi SE 4.6 mph - N/A   Scattered Clouds
10:30 PM 80.6 °F 86.2 °F 75.2 °F 84% 29.80 in 3.7 mi Calm Calm - N/A   Scattered Clouds
11:00 PM 80.6 °F 86.2 °F 75.2 °F 84% 29.80 in 3.7 mi ESE 4.6 mph - N/A   Scattered Clouds
11:30 PM 80.6 °F 86.2 °F 75.2 °F 84% 29.80 in 3.7 mi SSE 5.8 mph - N/A   Scattered Clouds